Weather History for Buffalo, MN

Change the Weather History Date:

Friday, February 15, 2013

  Actual Average (KSTC) Record (KSTC)
Temperature  
Mean Temperature 9 °F 17 °F  
Max Temperature 17 °F 27 °F 55 °F (1921)
Min Temperature 0 °F 7 °F -34 °F (1936)
Degree Days  
Heating Degree Days 56 48  
Month to date heating degree days 753  
Since 1 July heating degree days 5855  
Cooling Degree Days 0 0  
Month to date cooling degree days 0  
Year to date cooling degree days 0  
Moisture  
Dew Point 2 °F    
Average Humidity 73    
Maximum Humidity 87    
Minimum Humidity 53    
Precipitation  
Precipitation 0.00 in 0.02 in 0.49 in (1945)
Month to date precipitation 0.26  
Year to date precipitation 0.91  
Snow  
Snow 0.00 in 0.20 in 5.90 in (1962)
Month to date snowfall 3.4  
Since 1 July snowfall 30.6  
Snow Depth -    
Sea Level Pressure  
Sea Level Pressure 30.27 in    
Wind  
Wind Speed 7 mph (West)    
Max Wind Speed 10 mph    
Max Gust Speed -    
Visibility 10 miles    
Events      
T = Trace of Precipitation, MM = Missing Value Source: NWS Daily Summary

Daily Weather History Graph

Daily Weather History Graph

Search for Another Location

Airport:

Trip Planner

Search our weather history database for the weather conditions in past years. The results will help you decide how hot, cold, wet, or windy it might be!

Date:

Astronomy

Feb. 15, 2013 Rise Set
Actual Time 7:16 AM CST 5:43 PM CST
Civil Twilight 6:45 AM CST 6:13 PM CST
Nautical Twilight 6:11 AM CST 6:48 PM CST
Astronomical Twilight 5:37 AM CST 7:22 PM CST
Moon 9:34 AM CST (2/15) No Moon Set
Length of Visible Light 11h 27m
Length of Day
10h 27m
Waxing Crescent, 30% of the Moon is Illuminated
Feb 15
Waxing Crescent
Feb 17
First Quarter
Feb 25
Full
Mar 4
Last Quarter
Mar 11
New

Hourly Weather History & Observations

Time (CST) Temp. Windchill Dew Point Humidity Pressure Visibility Wind Dir Wind Speed Gust Speed Precip Events Conditions
12:14 AM 8.4 °F -3.9 °F -0.8 °F 66% 30.19 in 10.0 mi West 8.1 mph - N/A   Mostly Cloudy
12:34 AM 9.3 °F -3.8 °F 0.1 °F 66% 30.19 in 10.0 mi West 9.2 mph - N/A   Overcast
12:55 AM 9.1 °F -3.0 °F 0.7 °F 69% 30.20 in 10.0 mi West 8.1 mph - N/A   Overcast
1:14 AM 9.0 °F -2.2 °F 1.0 °F 70% 30.20 in 10.0 mi West 6.9 mph - N/A   Overcast
1:34 AM 9.0 °F -0.9 °F 1.9 °F 73% 30.19 in 10.0 mi WNW 5.8 mph - N/A   Overcast
1:55 AM 8.6 °F -1.3 °F 2.3 °F 76% 30.20 in 10.0 mi WNW 5.8 mph - N/A   Overcast
2:14 AM 8.6 °F -2.6 °F 2.8 °F 77% 30.20 in 10.0 mi WNW 6.9 mph - N/A   Overcast
2:34 AM 8.4 °F -0.1 °F 2.7 °F 77% 30.20 in 10.0 mi West 4.6 mph - N/A   Overcast
2:55 AM 7.7 °F -3.7 °F 2.3 °F 79% 30.21 in 10.0 mi West 6.9 mph - N/A   Mostly Cloudy
3:14 AM 7.3 °F -4.1 °F 2.3 °F 80% 30.21 in 10.0 mi West 6.9 mph - N/A   Mostly Cloudy
3:34 AM 6.8 °F -4.8 °F 2.1 °F 81% 30.21 in 10.0 mi West 6.9 mph - N/A   Mostly Cloudy
3:55 AM 6.1 °F -6.8 °F 1.6 °F 82% 30.21 in 10.0 mi West 8.1 mph - N/A   Clear
4:14 AM 6.3 °F -5.4 °F 1.9 °F 82% 30.22 in 10.0 mi WNW 6.9 mph - N/A   Clear
4:35 AM 5.9 °F -5.8 °F 1.9 °F 84% 30.22 in 10.0 mi WNW 6.9 mph - N/A   Clear
4:55 AM 5.5 °F -6.3 °F 1.6 °F 84% 30.23 in 10.0 mi West 6.9 mph - N/A   Clear
5:14 AM 5.2 °F -7.9 °F 1.4 °F 84% 30.23 in 10.0 mi WNW 8.1 mph - N/A   Clear
5:35 AM 4.8 °F -7.1 °F 1.2 °F 85% 30.24 in 10.0 mi WNW 6.9 mph - N/A   Clear
5:55 AM 4.8 °F -7.1 °F 1.4 °F 86% 30.24 in 10.0 mi WNW 6.9 mph - N/A   Clear
6:14 AM 4.3 °F -7.8 °F 0.9 °F 86% 30.24 in 10.0 mi WNW 6.9 mph - N/A   Clear
6:35 AM 3.9 °F -6.9 °F 0.5 °F 86% 30.26 in 10.0 mi WNW 5.8 mph - N/A   Scattered Clouds
6:55 AM 3.6 °F -7.3 °F 0.5 °F 87% 30.26 in 10.0 mi WNW 5.8 mph - N/A   Clear
7:14 AM 3.0 °F -6.4 °F -0.0 °F 87% 30.27 in 10.0 mi WNW 4.6 mph - N/A   Clear
7:55 AM 2.8 °F -8.2 °F -0.4 °F 86% 30.28 in 10.0 mi WNW 5.8 mph - N/A   Clear
8:14 AM 3.6 °F -8.7 °F 0.3 °F 86% 30.29 in 10.0 mi WNW 6.9 mph - N/A   Clear
8:35 AM 3.6 °F -8.7 °F -0.0 °F 85% 30.29 in 10.0 mi WNW 6.9 mph - N/A   Clear
8:55 AM 5.0 °F -6.9 °F 0.5 °F 82% 30.30 in 10.0 mi WNW 6.9 mph - N/A   Clear
9:14 AM 5.7 °F -4.8 °F 0.9 °F 80% 30.31 in 10.0 mi WNW 5.8 mph - N/A   Clear
9:35 AM 6.3 °F -5.4 °F 1.0 °F 79% 30.31 in 10.0 mi WNW 6.9 mph - N/A   Clear
9:55 AM 7.5 °F -1.1 °F 1.6 °F 77% 30.31 in 10.0 mi WNW 4.6 mph - N/A   Clear
10:14 AM 9.1 °F -4.0 °F 2.3 °F 74% 30.31 in 10.0 mi WNW 9.2 mph - N/A   Clear
10:34 AM 10.2 °F -1.7 °F 2.8 °F 72% 30.31 in 10.0 mi NW 8.1 mph - N/A   Clear
10:55 AM 11.8 °F -0.7 °F 3.7 °F 70% 30.31 in 10.0 mi NW 9.2 mph - N/A   Clear
11:14 AM 12.4 °F -0.8 °F 3.9 °F 69% 30.31 in 10.0 mi WNW 10.4 mph - N/A   Clear
11:55 AM 12.9 °F 1.6 °F 4.3 °F 68% 30.31 in 10.0 mi WNW 8.1 mph - N/A   Clear
12:14 PM 14.2 °F 2.2 °F 4.3 °F 65% 30.31 in 10.0 mi WNW 9.2 mph - N/A   Clear
12:34 PM 15.1 °F 4.2 °F 4.1 °F 62% 30.30 in 10.0 mi WNW 8.1 mph - N/A   Clear
12:55 PM 15.4 °F 3.8 °F 3.2 °F 59% 30.29 in 10.0 mi WNW 9.2 mph - N/A   Clear
1:14 PM 15.6 °F 3.2 °F 2.3 °F 56% 30.29 in 10.0 mi NW 10.4 mph - N/A   Clear
1:34 PM 16.7 °F 6.2 °F 3.2 °F 55% 30.29 in 10.0 mi WNW 8.1 mph - N/A   Clear
1:54 PM 16.9 °F 4.8 °F 3.6 °F 56% 30.29 in 10.0 mi West 10.4 mph - N/A   Clear
2:14 PM 16.7 °F 6.2 °F 3.2 °F 55% 30.29 in 10.0 mi WNW 8.1 mph - N/A   Clear
2:35 PM 17.1 °F 8.7 °F 2.8 °F 54% 30.28 in 10.0 mi WNW 5.8 mph - N/A   Clear
2:54 PM 17.2 °F 6.0 °F 3.2 °F 54% 30.29 in 10.0 mi West 9.2 mph - N/A   Clear
3:14 PM 17.2 °F 6.8 °F 2.8 °F 53% 30.29 in 10.0 mi WNW 8.1 mph - N/A   Clear
3:35 PM 17.4 °F 9.1 °F 3.6 °F 55% 30.29 in 10.0 mi WNW 5.8 mph - N/A   Clear
3:54 PM 17.2 °F 6.8 °F 3.6 °F 55% 30.29 in 10.0 mi WNW 8.1 mph - N/A   Clear
4:14 PM 16.7 °F 6.2 °F 4.1 °F 58% 30.29 in 10.0 mi West 8.1 mph - N/A   Clear
4:35 PM 15.8 °F 5.1 °F 4.1 °F 60% 30.29 in 10.0 mi West 8.1 mph - N/A   Clear
4:54 PM 14.5 °F 2.7 °F 4.6 °F 65% 30.30 in 10.0 mi West 9.2 mph - N/A   Clear
5:14 PM 13.3 °F 3.0 °F 4.1 °F 67% 30.30 in 10.0 mi West 6.9 mph - N/A   Clear
5:35 PM 12.2 °F 2.9 °F 3.2 °F 67% 30.29 in 10.0 mi WSW 5.8 mph - N/A   Clear
5:54 PM 11.3 °F 3.3 °F 2.3 °F 67% 30.29 in 10.0 mi WSW 4.6 mph - N/A   Clear
6:14 PM 10.4 °F 2.2 °F 2.1 °F 69% 30.29 in 10.0 mi WSW 4.6 mph - N/A   Clear
6:35 PM 9.9 °F 0.2 °F 1.9 °F 70% 30.29 in 10.0 mi WSW 5.8 mph - N/A   Clear
6:54 PM 9.5 °F -0.3 °F 2.1 °F 72% 30.29 in 10.0 mi WSW 5.8 mph - N/A   Clear
7:14 PM 8.6 °F 0.1 °F 1.2 °F 72% 30.28 in 10.0 mi WSW 4.6 mph - N/A   Clear
7:35 PM 8.1 °F -2.0 °F 0.5 °F 71% 30.28 in 10.0 mi WSW 5.8 mph - N/A   Clear
7:54 PM 7.2 °F -3.0 °F 0.1 °F 73% 30.28 in 10.0 mi WSW 5.8 mph - N/A   Clear
8:14 PM 6.6 °F -3.7 °F -0.8 °F 72% 30.28 in 10.0 mi WSW 5.8 mph - N/A   Clear
8:35 PM 5.9 °F -3.0 °F -1.3 °F 72% 30.28 in 10.0 mi WSW 4.6 mph - N/A   Clear
8:54 PM 5.0 °F -5.6 °F -1.5 °F 75% 30.28 in 10.0 mi West 5.8 mph - N/A   Clear
9:14 PM 5.0 °F -8.1 °F -0.4 °F 78% 30.28 in 10.0 mi West 8.1 mph - N/A   Clear
9:35 PM 4.8 °F -9.3 °F 0.1 °F 81% 30.28 in 10.0 mi West 9.2 mph - N/A   Clear
9:54 PM 4.1 °F -9.2 °F -0.4 °F 82% 30.28 in 10.0 mi West 8.1 mph - N/A   Clear
10:14 PM 3.2 °F -7.8 °F -0.9 °F 83% 30.28 in 10.0 mi West 5.8 mph - N/A   Clear
10:35 PM 2.3 °F -5.2 °F -1.5 °F 84% 30.27 in 10.0 mi WSW 3.5 mph - N/A   Scattered Clouds
10:54 PM 1.4 °F - -2.2 °F 85% 30.27 in 10.0 mi Calm Calm - N/A   Mostly Cloudy
11:14 PM 1.9 °F -5.6 °F -1.5 °F 86% 30.27 in 10.0 mi West 3.5 mph - N/A   Overcast
11:35 PM 1.2 °F -8.5 °F -2.2 °F 86% 30.26 in 10.0 mi West 4.6 mph - N/A   Scattered Clouds
11:54 PM 0.3 °F -9.5 °F -2.7 °F 87% 30.26 in 10.0 mi West 4.6 mph - N/A   Clear